Regional Weather Roundup
Issued by NWS Kansas City/Pleasant Hill, MO

Home | Current Version | Previous Version | Text Only | Print | Product List | Glossary On
Versions: 1 2 3 4 5 6 7 8 9 10 11 12 13 14 15 16 17 18 19 20 21 22 23 24 25 26 27 28 29 30 31 32 33 34 35 36 37 38 39 40 41 42 43 44 45 46 47 48 49 50
000
ASUS43 KEAX 290410
RWREAX

WEATHER ROUNDUP FOR EASTERN KANSAS AND NORTHWEST MISSOURI
NATIONAL WEATHER SERVICE KANSAS CITY/PLEASANT HILL MO
1000 PM CST WED JAN 28 2015

KSZ040-057-103>105-MOZ028-029-037-043-290500-
...KANSAS CITY METROPOLITAN AREA...

CITY           SKY/WX    TMP DP  RH WIND       PRES   REMARKS
K.C. INTL      PTCLDY    54  36  50 W8        29.78R
K.C. DOWNTOWN  MOCLDY    60  36  40 W12       29.77R
LEES SUMMIT    MOCLDY    58  38  47 SW12      29.78R
OLATHE - IXD   MOCLDY    53  37  54 SW6       29.81R
OLATHE - OJC   MOCLDY    55  38  52 W7        29.79R
LAWRENCE       MOCLDY    51  34  52 NW9       29.81R

$$

MOZ001>008-011>017-020>025-030>033-038>040-044>046-053-054-290500-
...NORTHERN AND CENTRAL MISSOURI...

CITY           SKY/WX    TMP DP  RH WIND       PRES   REMARKS
ST. JOSEPH     FAIR      54  36  50 NW15      29.78R
MOSBY          PTCLDY    59  36  41 W5        29.75S
WARRENSBURG    PTCLDY    57  39  51 SW14      29.77S
WHITEMAN AFB   PTCLDY    59  41  51 SW14      29.77S
CLINTON        MOCLDY    61  43  51 SW13      29.80S
SEDALIA        MOCLDY    58  39  49 SW13      29.78S
WARSAW         NOT AVBL
MARSHALL       PTCLDY    59  43  55 SW10      29.76S
CHILLICOTHE      N/A     52  39  61 SW5       29.72R
MOBERLY        MOCLDY    55  36  47 S22G32    29.73F
KIRKSVILLE     PTCLDY    53  38  56 SW16G26   29.68F

$$

MOZ041-047>049-056>058-063>065-088>090-097-290500-
...EASTERN AND SOUTHERN MISSOURI...

CITY           SKY/WX    TMP DP  RH WIND       PRES   REMARKS
ST. LOUIS INTL CLOUDY    47  33  58 S8        29.86F
SPIRIT OF STL  CLOUDY    48  34  58 VRB3      29.84F
COLUMBIA       PTCLDY    52  36  54 S13       29.78S
JEFFERSON CITY PTCLDY    53  36  52 S12       29.80F
MEXICO         CLEAR     50  39  66 S16G23    29.76F
HANNIBAL       CLEAR     48  32  53 S15G22    29.73F
ROLLA          PTCLDY    48  35  60 S18G26    29.83F
LEBANON        PTCLDY    54  37  54 S16G22    29.85S
OSAGE BEACH    PTCLDY    54  36  50 S12       29.83S
SPRINGFIELD    PTCLDY    55  40  56 S15       29.86S
BRANSON        CLEAR     59  43  55 S9G16     29.91F
JOPLIN         CLOUDY    63  41  44 SW14      29.88R
WEST PLAINS    MOCLDY    47  35  63 S7        29.96S

$$

IAZ060-094-KSZ022-034>040-054-083-096-NEZ052-066-093-290500-
...KANSAS...SOUTHEAST NEBRASKA AND IOWA...

CITY           SKY/WX    TMP DP  RH WIND       PRES   REMARKS
TOPEKA         PTCLDY    52  34  50 W8        29.83R
MANHATTAN      CLEAR     57  33  40 VRB6      29.88R
EMPORIA        PTCLDY    58  33  39 W14       29.86R
CHANUTE        CLOUDY    57  39  51 SW9       29.85R
WICHITA        PTCLDY    61  32  33 NW18      29.94R
OMAHA          MOCLDY    45  37  73 N24G37    29.84R
LINCOLN        PTCLDY    52  35  52 NW20G28   29.90R
FALLS CITY     CLEAR     52  36  54 NW21G28   29.81R
LAMONI         CLEAR     44  36  73 W14       29.70R
DES MOINES     PTCLDY    38  32  79 N6        29.69R WCI  33

$$



USA.gov is the U.S. government's official web portal to all federal, state and local government web resources and services.